FW6148 Weather Reports


Display with metric or nautical units.
time (UTC)temp
F
wind
direction
speed
MPH
gust
MPH
rain 1hr
in
rain 24hr
in
rain mn
in
humidity
%
barometer
mb
20260904090051 54 0 1.0 4.0 0.00 0.00 0.00 53 1009.5
20260904085527 53 360 1.0 4.0 0.00 0.00 0.00 55 1009.5
20260904085026 52 360 2.0 4.0 0.00 0.00 0.00 57 1009.6
20260904084546 51 360 1.0 4.0 0.00 0.00 0.00 59 1009.7
20260904084030 51 360 1.0 4.0 0.00 0.00 0.00 59 1009.8
20260904083525 52 360 1.0 4.0 0.00 0.00 0.00 58 1009.7
20260904083054 52 0 0.0 4.0 0.00 0.00 0.00 57 1009.7
20260904082525 53 0 0.0 4.0 0.00 0.00 0.00 57 1009.8
20260904082027 52 360 2.0 4.0 0.00 0.00 0.00 57 1009.8
20260904081552 52 360 1.0 4.0 0.00 0.00 0.00 57 1009.7
20260904081027 52 360 2.0 4.0 0.00 0.00 0.00 57 1009.8
20260904080529 52 0 0.0 2.0 0.00 0.00 0.00 58 1010.0
20260904080049 53 360 1.0 3.0 0.00 0.00 0.00 56 1010.0
20260904075526 53 360 1.0 4.0 0.00 0.00 0.00 56 1010.0
20260904075026 53 360 2.0 4.0 0.00 0.00 0.00 55 1009.8
20260904074550 54 360 2.0 4.0 0.00 0.00 0.00 54 1010.1
20260904074028 54 0 0.0 1.0 0.00 0.00 0.00 54 1010.2
20260904073528 55 0 0.0 3.0 0.00 0.00 0.00 54 1010.3
20260904073058 55 0 0.0 3.0 0.00 0.00 0.00 53 1010.2
20260904072524 55 0 0.0 4.0 0.00 0.00 0.00 52 1010.4
20260904072031 55 0 1.0 4.0 0.00 0.00 0.00 52 1010.4
20260904071548 55 360 2.0 4.0 0.00 0.00 0.00 52 1010.4
20260904071025 56 360 1.0 3.0 0.00 0.00 0.00 52 1010.3
20260904070526 56 0 0.0 3.0 0.00 0.00 0.00 52 1010.2
20260904070048 56 360 1.0 3.0 0.00 0.00 0.00 51 1010.3
20260904065526 56 0 1.0 5.0 0.00 0.00 0.00 51 1010.3
20260904065026 56 360 2.0 5.0 0.00 0.00 0.00 52 1010.4
20260904064555 56 0 1.0 4.0 0.00 0.00 0.00 53 1010.3
20260904064025 55 360 1.0 3.0 0.00 0.00 0.00 53 1010.4
20260904063528 55 0 0.0 0.0 0.00 0.00 0.00 55 1010.3
20260904063102 54 0 0.0 0.0 0.00 0.00 0.00 55 1010.3
20260904062527 54 0 0.0 0.0 0.00 0.00 0.00 56 1010.3
20260904062027 54 0 0.0 0.0 0.00 0.00 0.00 58 1010.2
20260904061551 54 0 0.0 0.0 0.00 0.00 0.00 55 1010.2
20260904061031 54 0 0.0 0.0 0.00 0.00 0.00 55 1010.3
20260904060525 54 0 0.0 0.0 0.00 0.00 0.00 54 1010.3
20260904060055 55 0 0.0 0.0 0.00 0.00 0.00 55 1010.4
20260904055525 55 0 0.0 0.0 0.00 0.00 0.00 52 1010.4
20260904055031 55 0 0.0 0.0 0.00 0.00 0.00 52 1010.5
20260904054544 54 0 0.0 0.0 0.00 0.00 0.00 53 1010.5
20260904054025 54 0 0.0 0.0 0.00 0.00 0.00 54 1010.5
20260904053526 55 0 0.0 0.0 0.00 0.00 0.00 52 1010.4
20260904053054 55 0 0.0 0.0 0.00 0.00 0.00 52 1010.4
20260904052528 55 0 0.0 0.0 0.00 0.00 0.00 52 1010.4
20260904052026 55 0 0.0 0.0 0.00 0.00 0.00 51 1010.5
20260904051600 56 0 0.0 0.0 0.00 0.00 0.00 50 1010.6
20260904051027 56 0 0.0 0.0 0.00 0.00 0.00 50 1010.6
20260904050526 57 0 0.0 0.0 0.00 0.00 0.00 48 1010.6
20260904050047 58 0 0.0 0.0 0.00 0.00 0.00 46 1010.4
20260904045528 59 0 0.0 2.0 0.00 0.00 0.00 47 1010.4
20260904045026 59 0 0.0 2.0 0.00 0.00 0.00 45 1010.4
20260904044545 60 0 0.0 2.0 0.00 0.00 0.00 44 1010.5
20260904044028 61 0 0.0 4.0 0.00 0.00 0.00 44 1010.6
20260904043526 61 0 1.0 4.0 0.00 0.00 0.00 43 1010.4
20260904043053 61 360 2.0 4.0 0.00 0.00 0.00 42 1010.6
20260904042526 62 360 0.0 4.0 0.00 0.00 0.00 42 1010.6
20260904042031 62 360 2.0 6.0 0.00 0.00 0.00 43 1010.6
20260904041552 61 360 3.0 6.0 0.00 0.00 0.00 41 1010.6
20260904041024 61 0 1.0 8.0 0.00 0.00 0.00 44 1010.8
20260904040527 60 360 2.0 8.0 0.00 0.00 0.00 44 1010.7
20260904040051 59 360 1.0 8.0 0.00 0.00 0.00 45 1010.8
20260904035527 60 0 0.0 1.0 0.00 0.00 0.00 45 1010.7
20260904035028 60 0 0.0 2.0 0.00 0.00 0.00 45 1010.6
20260904034556 60 0 0.0 2.0 0.00 0.00 0.00 44 1010.7
20260904034027 61 0 0.0 5.0 0.00 0.00 0.00 44 1010.7
20260904033525 61 0 1.0 5.0 0.00 0.00 0.00 43 1010.7
20260904033052 60 360 0.0 2.0 0.00 0.00 0.00 44 1010.7
20260904032526 59 0 0.0 0.0 0.00 0.00 0.00 44 1010.6
20260904032028 60 0 0.0 2.0 0.00 0.00 0.00 46 1010.7
20260904031557 60 0 0.0 3.0 0.00 0.00 0.00 45 1010.6
20260904031025 60 0 0.0 4.0 0.00 0.00 0.00 44 1010.6
20260904030529 60 0 1.0 4.0 0.00 0.00 0.00 45 1010.4
20260904030057 59 360 2.0 4.0 0.00 0.00 0.00 46 1010.6
20260904025526 59 360 2.0 4.0 0.00 0.00 0.00 49 1010.4
20260904025026 59 360 2.0 4.0 0.00 0.00 0.00 46 1010.3
20260904024552 60 0 0.0 3.0 0.00 0.00 0.00 45 1010.2
20260904024029 61 0 0.0 3.0 0.00 0.00 0.00 45 1010.2
20260904023529 61 360 1.0 3.0 0.00 0.00 0.00 44 1010.2
20260904023050 62 0 0.0 0.0 0.00 0.00 0.00 43 1010.1
20260904022525 62 0 0.0 2.0 0.00 0.00 0.00 43 1009.9
20260904022027 63 0 0.0 2.0 0.00 0.00 0.00 43 1009.7
20260904021549 64 0 0.0 2.0 0.00 0.00 0.00 39 1009.6
20260904021030 65 0 0.0 3.0 0.00 0.00 0.00 39 1009.7
20260904020528 66 0 1.0 4.0 0.00 0.00 0.00 38 1009.6
20260904020100 67 360 2.0 4.0 0.00 0.00 0.00 37 1009.6
20260904015527 70 0 0.0 1.0 0.00 0.00 0.00 35 1009.5
20260904015025 71 0 0.0 3.0 0.00 0.00 0.00 33 1009.4
20260904014605 73 0 1.0 3.0 0.00 0.00 0.00 31 1009.4
20260904014026 74 360 0.0 3.0 0.00 0.00 0.00 29 1009.3
20260904013524 76 0 0.0 0.0 0.00 0.00 0.00 29 1009.2
20260904013050 78 0 0.0 0.0 0.00 0.00 0.00 27 1009.2
20260904012525 80 0 0.0 3.0 0.00 0.00 0.00 23 1009.0
20260904012027 80 0 0.0 3.0 0.00 0.00 0.00 23 1009.0
20260904011551 81 0 1.0 4.0 0.00 0.00 0.00 22 1008.9
20260904011030 81 360 1.0 5.0 0.00 0.00 0.00 22 1009.0
20260904010527 82 360 1.0 5.0 0.00 0.00 0.00 21 1009.0
20260904005528 84 116 1.0 4.0 0.00 0.00 0.00 20 1008.8
20260904005025 85 116 2.0 4.0 0.00 0.00 0.00 19 1008.8
20260904004544 85 116 2.0 6.0 0.00 0.00 0.00 19 1008.7
20260904004026 86 115 1.0 7.0 0.00 0.00 0.00 19 1008.7
20260904003526 86 115 2.0 7.0 0.00 0.00 0.00 18 1008.6
20260904003048 86 107 3.0 7.0 0.00 0.00 0.00 18 1008.6
20260904002530 87 48 3.0 5.0 0.00 0.00 0.00 18 1008.7
20260904002029 87 60 1.0 4.0 0.00 0.00 0.00 18 1008.7
20260904001551 87 53 1.0 4.0 0.00 0.00 0.00 19 1008.6
20260904001027 87 0 0.0 4.0 0.00 0.00 0.00 17 1008.7
20260904000531 87 78 1.0 4.0 0.00 0.00 0.00 17 1008.6
20260904000053 87 111 0.0 5.0 0.00 0.00 0.00 17 1008.7
20260903235528 86 146 2.0 6.0 0.00 0.00 0.00 18 1008.6
20260903235026 86 120 3.0 6.0 0.00 0.00 0.00 18 1008.7
20260903234545 86 101 3.0 6.0 0.00 0.00 0.00 18 1008.7
20260903234026 86 38 2.0 7.0 0.00 0.00 0.00 19 1008.7
20260903233526 86 46 2.0 7.0 0.00 0.00 0.00 18 1008.8
20260903233103 86 141 2.0 5.0 0.00 0.00 0.00 18 1008.6
20260903232526 86 136 2.0 8.0 0.00 0.00 0.00 18 1008.8
20260903232027 86 84 3.0 8.0 0.00 0.00 0.00 19 1008.7
20260903231549 86 81 3.0 8.0 0.00 0.00 0.00 19 1008.7
20260903231025 86 88 2.0 4.0 0.00 0.00 0.00 19 1008.6
20260903230526 86 34 1.0 4.0 0.00 0.00 0.00 19 1008.6
20260903230050 86 335 1.0 9.0 0.00 0.00 0.00 19 1008.7
20260903225525 86 98 0.0 9.0 0.00 0.00 0.00 18 1008.5
20260903225026 87 98 4.0 9.0 0.00 0.00 0.00 18 1008.5
20260903224543 87 112 2.0 8.0 0.00 0.00 0.00 18 1008.6
20260903224026 87 109 3.0 7.0 0.00 0.00 0.00 18 1008.6
20260903223526 86 71 3.0 7.0 0.00 0.00 0.00 18 1008.6
20260903223052 86 57 3.0 7.0 0.00 0.00 0.00 18 1008.7
20260903222530 87 46 1.0 5.0 0.00 0.00 0.00 18 1008.6
20260903222026 87 261 1.0 4.0 0.00 0.00 0.00 18 1008.6
20260903221549 87 127 0.0 7.0 0.00 0.00 0.00 19 1008.6
20260903221026 87 132 2.0 10.0 0.00 0.00 0.00 18 1008.5
20260903220527 87 86 1.0 10.0 0.00 0.00 0.00 18 1008.6
20260903220051 87 94 2.0 10.0 0.00 0.00 0.00 19 1008.6
20260903215526 87 108 3.0 11.0 0.00 0.00 0.00 19 1008.5
20260903215026 87 213 3.0 11.0 0.00 0.00 0.00 18 1008.6
20260903214545 86 135 6.0 11.0 0.00 0.00 0.00 18 1008.6
20260903214026 86 140 6.0 12.0 0.00 0.00 0.00 19 1008.6
20260903213526 86 81 5.0 12.0 0.00 0.00 0.00 18 1008.6
20260903213056 87 38 3.0 9.0 0.00 0.00 0.00 20 1008.6
20260903212527 87 74 2.0 7.0 0.00 0.00 0.00 19 1008.8
20260903212025 86 0 1.0 7.0 0.00 0.00 0.00 20 1008.7
20260903211550 86 215 2.0 6.0 0.00 0.00 0.00 19 1008.8
20260903211026 85 248 3.0 5.0 0.00 0.00 0.00 20 1008.9
20260903210528 85 305 1.0 4.0 0.00 0.00 0.00 21 1008.9
20260903205532 84 0 0.0 3.0 0.00 0.00 0.00 22 1008.9
20260903205026 84 265 1.0 6.0 0.00 0.00 0.00 22 1008.8
20260903204617 84 0 1.0 6.0 0.00 0.00 0.00 22 1008.9
20260903204028 84 225 1.0 6.0 0.00 0.00 0.00 22 1008.9
20260903203528 83 242 2.0 6.0 0.00 0.00 0.00 23 1009.0
20260903203053 84 263 2.0 4.0 0.00 0.00 0.00 22 1009.0
20260903202530 84 293 0.0 4.0 0.00 0.00 0.00 22 1009.0
20260903202033 84 0 1.0 6.0 0.00 0.00 0.00 21 1009.0
20260903201546 84 157 2.0 6.0 0.00 0.00 0.00 21 1009.0
20260903201029 84 178 2.0 9.0 0.00 0.00 0.00 21 1009.2
20260903200529 84 321 3.0 10.0 0.00 0.00 0.00 21 1009.2
20260903200057 85 200 3.0 10.0 0.00 0.00 0.00 21 1009.2
20260903195532 85 207 5.0 9.0 0.00 0.00 0.00 21 1009.2
20260903195026 84 121 1.0 5.0 0.00 0.00 0.00 21 1009.4
20260903194548 84 139 1.0 6.0 0.00 0.00 0.00 22 1009.3
20260903194025 84 166 2.0 6.0 0.00 0.00 0.00 22 1009.4
20260903193526 84 200 1.0 7.0 0.00 0.00 0.00 22 1009.5
20260903193051 83 289 3.0 7.0 0.00 0.00 0.00 22 1009.6
20260903192528 83 193 3.0 7.0 0.00 0.00 0.00 22 1009.4
20260903192028 83 128 2.0 9.0 0.00 0.00 0.00 21 1009.5
20260903191550 84 215 3.0 9.0 0.00 0.00 0.00 21 1009.5
20260903191026 84 173 3.0 7.0 0.00 0.00 0.00 21 1009.4
20260903190528 84 98 3.0 9.0 0.00 0.00 0.00 21 1009.5
20260903190050 84 9 4.0 9.0 0.00 0.00 0.00 22 1009.6
20260903185525 84 86 4.0 9.0 0.00 0.00 0.00 23 1009.5
20260903185027 84 246 5.0 9.0 0.00 0.00 0.00 21 1009.7
20260903184551 84 196 3.0 12.0 0.00 0.00 0.00 21 1009.5
20260903184028 84 207 7.0 14.0 0.00 0.00 0.00 21 1009.6
20260903183526 83 0 2.0 14.0 0.00 0.00 0.00 21 1009.6
20260903183045 84 220 6.0 13.0 0.00 0.00 0.00 22 1009.7
20260903182527 84 176 4.0 11.0 0.00 0.00 0.00 22 1009.6
20260903182028 83 236 5.0 10.0 0.00 0.00 0.00 23 1009.8
20260903181554 83 158 3.0 10.0 0.00 0.00 0.00 22 1010.0
20260903181029 83 279 3.0 10.0 0.00 0.00 0.00 24 1010.0
20260903180527 83 225 3.0 10.0 0.00 0.00 0.00 23 1010.1
20260903180052 83 265 4.0 10.0 0.00 0.00 0.00 24 1010.0
20260903175526 83 294 2.0 10.0 0.00 0.00 0.00 26 1010.1
20260903175026 82 288 4.0 10.0 0.00 0.00 0.00 25 1010.1
20260903174552 82 224 5.0 10.0 0.00 0.00 0.00 24 1010.1
20260903174029 82 257 4.0 8.0 0.00 0.00 0.00 24 1010.3
20260903173526 82 272 4.0 13.0 0.00 0.00 0.00 26 1010.2
20260903173045 81 294 4.0 15.0 0.00 0.00 0.00 27 1010.2
20260903172529 81 304 5.0 15.0 0.00 0.00 0.00 26 1010.3
20260903172027 81 224 3.0 12.0 0.00 0.00 0.00 26 1010.3
20260903171557 81 288 4.0 12.0 0.00 0.00 0.00 26 1010.4
20260903171026 80 280 5.0 12.0 0.00 0.00 0.00 26 1010.3
20260903170530 81 251 5.0 12.0 0.00 0.00 0.00 26 1010.3
20260903170050 80 241 4.0 8.0 0.00 0.00 0.00 28 1010.4
20260903165529 80 286 2.0 10.0 0.00 0.00 0.00 28 1010.3
20260903165025 79 229 5.0 10.0 0.00 0.00 0.00 27 1010.2
20260903164549 79 259 3.0 9.0 0.00 0.00 0.00 27 1010.2
20260903164026 79 291 4.0 9.0 0.00 0.00 0.00 29 1010.3
20260903163529 79 203 3.0 8.0 0.00 0.00 0.00 28 1010.3
20260903163048 78 265 2.0 9.0 0.00 0.00 0.00 29 1010.2
20260903162529 78 0 2.0 9.0 0.00 0.00 0.00 29 1010.3
20260903162032 78 252 4.0 10.0 0.00 0.00 0.00 28 1010.2
20260903161553 78 219 4.0 10.0 0.00 0.00 0.00 29 1010.3
20260903161030 77 207 5.0 11.0 0.00 0.00 0.00 29 1010.3
20260903160526 77 230 3.0 11.0 0.00 0.00 0.00 31 1010.3
20260903155528 77 273 2.0 11.0 0.00 0.00 0.00 31 1010.2
20260903155029 76 360 2.0 11.0 0.00 0.00 0.00 33 1010.2
20260903154547 76 360 2.0 11.0 0.00 0.00 0.00 32 1010.3
20260903154026 76 360 5.0 10.0 0.00 0.00 0.00 33 1010.2
20260903153525 75 360 4.0 9.0 0.00 0.00 0.00 33 1010.3
20260903153045 75 360 3.0 8.0 0.00 0.00 0.00 34 1010.3
20260903152528 74 360 2.0 8.0 0.00 0.00 0.00 36 1010.3
20260903152027 72 360 2.0 5.0 0.00 0.00 0.00 38 1010.4
20260903151554 71 360 0.0 4.0 0.00 0.00 0.00 39 1010.5
20260903151027 71 360 1.0 4.0 0.00 0.00 0.00 40 1010.5
20260903150527 70 360 1.0 5.0 0.00 0.00 0.00 42 1010.6
20260903150104 69 0 2.0 5.0 0.00 0.00 0.00 44 1010.7
20260903145525 68 360 1.0 4.0 0.00 0.00 0.00 45 1010.7
20260903145026 66 0 1.0 4.0 0.00 0.00 0.00 46 1010.8
20260903144556 65 360 2.0 4.0 0.00 0.00 0.00 48 1010.9
20260903144028 64 0 1.0 4.0 0.00 0.00 0.00 51 1010.9
20260903143526 63 360 0.0 3.0 0.00 0.00 0.00 52 1010.9
20260903143048 62 0 0.0 2.0 0.00 0.00 0.00 55 1010.9
20260903142526 62 0 0.0 4.0 0.00 0.00 0.00 55 1011.0
20260903142026 61 360 1.0 4.0 0.00 0.00 0.00 53 1010.9
20260903141557 60 360 1.0 3.0 0.00 0.00 0.00 55 1010.9
20260903141025 60 0 1.0 3.0 0.00 0.00 0.00 56 1010.9
20260903140525 60 0 0.0 0.0 0.00 0.00 0.00 59 1010.9
20260903140058 60 0 0.0 0.0 0.00 0.00 0.00 59 1010.8
20260903135527 59 0 0.0 0.0 0.00 0.00 0.00 58 1010.9
20260903135029 59 0 0.0 0.0 0.00 0.00 0.00 57 1010.7
20260903134551 59 0 0.0 2.0 0.00 0.00 0.00 56 1010.8
20260903134025 60 0 0.0 2.0 0.00 0.00 0.00 56 1010.8
20260903133527 59 0 0.0 2.0 0.00 0.00 0.00 55 1010.7
20260903133058 59 0 0.0 0.0 0.00 0.00 0.00 55 1010.5
20260903132526 58 0 0.0 3.0 0.00 0.00 0.00 55 1010.6
20260903132027 58 0 0.0 3.0 0.00 0.00 0.00 56 1010.4
20260903131545 58 360 0.0 4.0 0.00 0.00 0.00 56 1010.3
20260903131025 58 0 1.0 4.0 0.00 0.00 0.00 56 1010.5
20260903130524 58 0 2.0 4.0 0.00 0.00 0.00 55 1010.7
20260903130053 58 360 2.0 4.0 0.00 0.00 0.00 53 1010.7
20260903125527 59 360 1.0 3.0 0.00 0.00 0.00 53 1010.7
20260903125026 60 360 1.0 3.0 0.00 0.00 0.00 52 1010.7
20260903124553 60 360 1.0 3.0 0.00 0.00 0.00 51 1010.7
20260903124025 61 360 0.0 2.0 0.00 0.00 0.00 51 1010.6
20260903123526 61 360 1.0 4.0 0.00 0.00 0.00 49 1010.4
20260903123051 62 0 0.0 4.0 0.00 0.00 0.00 49 1010.4
20260903122526 62 0 0.0 6.0 0.00 0.00 0.00 49 1010.6
20260903122026 62 360 0.0 6.0 0.00 0.00 0.00 48 1010.5
20260903121550 62 360 3.0 6.0 0.00 0.00 0.00 47 1010.6
20260903121025 63 360 2.0 9.0 0.00 0.00 0.00 47 1010.7
20260903120527 63 0 2.0 10.0 0.00 0.00 0.00 47 1010.7
20260903120101 63 360 5.0 12.0 0.00 0.00 0.00 47 1010.7
20260903115525 63 360 6.0 12.0 0.00 0.00 0.00 47 1010.7
20260903115027 63 360 3.0 6.0 0.00 0.00 0.00 46 1010.5
20260903114606 63 360 2.0 6.0 0.00 0.00 0.00 46 1010.5
20260903114025 64 360 2.0 6.0 0.00 0.00 0.00 45 1010.5
20260903113525 64 360 3.0 9.0 0.00 0.00 0.00 44 1010.6
20260903113044 64 360 3.0 12.0 0.00 0.00 0.00 44 1010.4
20260903112526 64 360 5.0 12.0 0.00 0.00 0.00 44 1010.6
20260903112029 64 360 6.0 12.0 0.00 0.00 0.00 44 1010.9
20260903111550 64 360 4.0 12.0 0.00 0.00 0.00 44 1010.6
20260903111028 65 360 2.0 12.0 0.00 0.00 0.00 43 1010.6
20260903110529 65 360 4.0 12.0 0.00 0.00 0.00 42 1010.6
20260903110052 65 360 6.0 11.0 0.00 0.00 0.00 42 1010.3
20260903105526 64 360 2.0 10.0 0.00 0.00 0.00 43 1010.1
20260903105029 64 360 5.0 14.0 0.00 0.00 0.00 43 1010.3
20260903104550 64 360 6.0 14.0 0.00 0.00 0.00 44 1010.1
20260903104025 63 360 5.0 13.0 0.00 0.00 0.00 44 1010.4
20260903103528 62 360 4.0 8.0 0.00 0.00 0.00 44 1010.2
20260903103046 61 0 2.0 4.0 0.00 0.00 0.00 46 1010.2
20260903102528 61 360 0.0 3.0 0.00 0.00 0.00 47 1010.0
20260903102028 62 360 1.0 3.0 0.00 0.00 0.00 45 1009.6
20260903101555 62 360 0.0 3.0 0.00 0.00 0.00 46 1009.8
20260903101026 62 0 0.0 4.0 0.00 0.00 0.00 44 1009.6
20260903100527 61 360 2.0 4.0 0.00 0.00 0.00 44 1009.4
20260903100051 61 360 1.0 3.0 0.00 0.00 0.00 46 1009.5
20260903095528 61 0 0.0 4.0 0.00 0.00 0.00 47 1009.7
20260903095026 61 360 2.0 4.0 0.00 0.00 0.00 44 1009.5
20260903094554 60 360 0.0 3.0 0.00 0.00 0.00 46 1009.4
20260903094026 61 0 0.0 0.0 0.00 0.00 0.00 45 1009.5
20260903093527 61 0 0.0 0.0 0.00 0.00 0.00 48 1009.5
20260903093101 62 0 0.0 1.0 0.00 0.00 0.00 44 1009.4
20260903092528 62 0 0.0 3.0 0.00 0.00 0.00 45 1009.6
20260903092028 63 0 1.0 3.0 0.00 0.00 0.00 45 1009.5
20260903091549 63 360 1.0 3.0 0.00 0.00 0.00 43 1009.5
20260903091028 63 360 0.0 3.0 0.00 0.00 0.00 45 1009.5
20260903090527 63 0 0.0 3.0 0.00 0.00 0.00 45 1009.6